This is the latest recevied weather packets stored in our database for station/object EA5JUX. If no packets are shown the sender has not sent any weather packets the latest 1 day(s).
| Time | Temp. | Humidity | Pressure | Rain* | Wind** | Luminosity | Snow |
|---|---|---|---|---|---|---|---|
| 1778037137 | 15° C | 88% | 1009.1 hPa | 0 mm | 0 m/s | - | - |
| 1778036837 | 14.44° C | 87% | 1009.1 hPa | 0 mm | 0.45 m/s, 248° | - | - |
| 1778036537 | 14.44° C | 87% | 1009.2 hPa | 0 mm | 0.89 m/s, 248° | - | - |
| 1778036237 | 14.44° C | 87% | 1009 hPa | 0 mm | 0.89 m/s, 225° | - | - |
| 1778035937 | 13.89° C | 87% | 1009.1 hPa | 0 mm | 0.89 m/s, 248° | - | - |
| 1778035637 | 13.89° C | 87% | 1009.3 hPa | 0 mm | 0.45 m/s, 270° | - | - |
| 1778035338 | 14.44° C | 87% | 1009.4 hPa | 0 mm | 0.89 m/s, 270° | - | - |
| 1778035037 | 14.44° C | 86% | 1009.3 hPa | 0 mm | 1.34 m/s, 293° | - | - |
| 1778034737 | 15° C | 86% | 1009.2 hPa | 0 mm | 0.89 m/s, 293° | - | - |
| 1778034436 | 15.56° C | 86% | 1009.2 hPa | 0 mm | 0.89 m/s, 248° | - | - |
| 1778034137 | 16.11° C | 85% | 1009.1 hPa | 0 mm | 0.45 m/s, 270° | - | - |
| 1778033859 | 16.11° C | 85% | 1009.2 hPa | 0 mm | 0 m/s | - | - |
| 1778033537 | 16.11° C | 85% | 1009.2 hPa | 0 mm | 0 m/s | - | - |
| 1778033247 | 16.67° C | 84% | 1009.1 hPa | 0 mm | 0 m/s | - | - |
| 1778032937 | 16.67° C | 84% | 1009.2 hPa | 0 mm | 0.45 m/s, 225° | - | - |
| 1778032637 | 16.67° C | 84% | 1009.2 hPa | 0 mm | 0.89 m/s, 203° | - | - |
| 1778032337 | 16.67° C | 84% | 1009.1 hPa | 0 mm | 0.89 m/s, 203° | - | - |
| 1778032037 | 16.11° C | 83% | 1009.3 hPa | 0 mm | 0.45 m/s, 203° | - | - |
| 1778031737 | 16.67° C | 83% | 1009.2 hPa | 0 mm | 0.45 m/s, 203° | - | - |
| 1778031437 | 16.67° C | 83% | 1009.1 hPa | 0 mm | 0 m/s | - | - |
| 1778031137 | 16.67° C | 83% | 1009.2 hPa | 0 mm | 0.45 m/s, 203° | - | - |
| 1778030848 | 16.11° C | 83% | 1009.4 hPa | 0 mm | 0.89 m/s, 203° | - | - |
| 1778030537 | 16.11° C | 83% | 1009.3 hPa | 0 mm | 0.89 m/s, 180° | - | - |
| 1778030249 | 16.11° C | 83% | 1009.5 hPa | 0 mm | 0.45 m/s, 203° | - | - |
| 1778029938 | 16.11° C | 84% | 1009.5 hPa | 0 mm | 0.89 m/s, 203° | - | - |
* Rain latest hour (hover to see other rain measurements)
** Current wind speed in m/s (hover to see current wind gust speed)